Location: Delia
(51.6321°N, 112.3740°W)
Time: 21:16:23
(UTC+00:00)

Envisat - Pass Details

Date: 08 December 2021
Orbit: 764 x 766 km, 98.2° (Epoch: 26 January)

Event Time Altitude Azimuth Distance (km) Brightness Sun altitude
Rises 11:22:41 0° 25° (NNE) 3,247 6.6 -35.9°
Reaches altitude 10° 11:25:35 10° 41° (NE) 2,314 6.0 -35.5°
Maximum altitude 11:29:22 21° 89° (E) 1,694 5.4 -34.9°
Drops below altitude 10° 11:33:06 10° 137° (SE) 2,300 5.8 -34.3°
Sets 11:35:58 0° 154° (SSE) 3,221 6.5 -33.9°
